Wind_Speed
10 27 24 27 30 30 30 28 26 23 22 21 22 21 19 17 15 12 13 12 11 9 7 9 10 6 7 9 9 7 9 7 4
4 18 30 27 32 32 30 30 27 25 23 22 21 21 20 19 18 16 14 14 12 11 9 8 7 7 8 8 8 9 10 7 8
13 3 15 11 19 31 30 30 28 25 24 22 21 20 20 19 19 18 18 15 16 13 12 11 13 10 10 9 10 9 9 9 10
15 19 21 14 12 11 21 31 29 26 26 24 20 19 20 20 19 19 18 17 16 16 15 14 12 9 12 12 10 11 12 12 7
14 17 17 18 12 9 6 7 20 26 25 23 21 19 19 20 20 19 18 18 17 16 16 15 17 15 17 15 14 13 14 12 11
17 19 22 17 14 8 5 11 6 12 14 18 20 19 19 18 18 21 22 21 19 18 17 17 16 16 18 16 15 15 15 17 15
18 21 21 20 21 11 3 9 7 8 12 9 10 16 18 18 17 20 19 21 22 19 20 19 18 20 20 19 18 17 17 18 19
18 18 19 20 24 22 18 5 4 3 1 6 10 7 5 11 12 15 18 19 23 23 22 22 22 20 21 23 21 19 19 20 19
16 16 16 17 17 16 16 17 14 8 4 5 6 8 9 8 8 12 15 16 18 24 27 26 26 25 25 24 23 23 25 24 21
15 15 14 14 14 14 15 14 14 15 14 11 2 3 5 13 17 13 13 15 19 18 23 23 27 29 27 29 30 26 28 31 31
12 11 11 11 11 10 11 11 13 15 15 15 12 8 5 6 9 13 20 14 17 21 23 22 24 29 31 33 32 32 31 32 33
8 8 7 7 8 8 8 9 11 11 10 12 10 15 13 9 9 11 15 15 13 16 22 24 26 27 29 31 34 34 33 33 35
5 5 6 6 8 7 7 9 10 10 10 10 11 12 12 13 12 10 10 15 18 17 15 21 25 27 29 30 31 33 34 36 36
2 4 6 8 7 8 8 9 10 10 10 9 11 12 12 12 12 15 15 13 17 21 20 20 20 25 25 29 32 31 32 34 34
2 3 4 6 8 8 10 11 11 12 12 13 15 15 13 14 14 14 13 17 15 17 18 21 23 22 24 28 32 31 32 35 35
2 2 3 4 6 7 8 9 11 14 15 17 18 18 17 16 17 16 15 18 17 15 16 19 17 16 18 22 24 27 31 28 30
2 3 5 6 6 6 7 10 12 14 16 18 18 19 20 19 18 18 18 15 16 15 15 15 13 17 18 23 16 16 19 23 22
2 4 6 8 8 8 9 9 11 13 14 16 18 19 18 19 19 20 19 19 17 17 18 17 19 19 20 22 24 24 22 20 19
3 4 5 6 9 10 11 12 12 13 14 16 17 18 19 17 19 19 21 23 23 21 24 26 27 27 28 31 33 31 29 25 23
4 5 6 6 7 10 11 13 15 14 14 15 16 16 17 19 22 23 23 24 25 28 25 26 27 27 27 28 33 34 32 30 29
Wind_Direction
283 199 203 194 191 190 190 190 189 194 199 202 208 211 215 216 214 217 218 221 216 231 229 204 214 254 219 201 217 212 213 217 215
313 193 191 194 192 196 186 198 193 196 203 207 210 213 218 222 222 208 214 219 227 224 236 222 198 204 215 215 215 216 235 213 232
4 321 72 185 201 186 196 196 198 201 205 209 209 212 218 220 218 223 215 213 218 215 225 244 260 188 223 210 221 228 218 226 244
26 35 43 62 30 174 195 195 198 200 205 207 210 212 215 217 221 219 220 220 221 224 223 218 235 221 224 224 228 232 239 219 233
47 48 55 69 67 154 152 174 194 198 206 208 213 215 219 219 217 216 221 223 222 225 228 226 223 225 232 228 229 229 243 238 231
53 53 51 55 72 92 73 66 146 186 193 206 214 212 216 220 218 218 217 224 222 224 231 228 225 223 237 230 230 233 236 236 233
74 66 59 59 59 88 33 45 77 121 165 175 182 207 217 216 224 221 226 223 224 225 230 233 233 223 225 235 232 232 237 243 248
85 77 70 62 54 51 52 51 336 302 123 152 163 174 179 204 225 230 225 229 223 225 229 237 242 238 229 225 232 241 241 237 243
85 73 68 66 66 63 54 44 52 53 294 287 260 249 229 229 240 218 230 238 233 233 223 232 238 241 239 234 232 238 234 235 237
89 82 74 62 54 52 50 42 35 40 42 35 39 232 238 235 241 234 228 234 237 244 241 230 238 241 240 240 244 234 235 240 238
89 79 74 66 58 49 46 37 31 32 33 23 16 6 272 257 237 235 240 243 250 242 239 242 242 243 247 243 244 245 241 239 244
84 72 63 53 40 36 34 31 22 23 19 26 16 6 355 335 309 270 257 250 252 248 252 245 242 243 248 249 251 244 246 246 245
61 46 30 16 14 17 11 7 4 8 6 8 5 1 357 350 337 329 295 269 258 262 261 253 249 249 250 249 253 253 251 245 244
28 359 351 348 349 349 346 343 344 346 344 343 339 339 337 335 333 330 324 310 289 269 264 260 256 254 254 251 248 253 257 254 251
352 345 338 333 329 324 326 329 329 325 324 320 319 320 321 318 320 321 315 313 311 302 292 275 266 257 259 260 255 248 250 255 259
358 10 7 353 336 325 326 324 325 319 318 318 314 307 305 305 305 308 310 307 311 310 310 314 292 280 275 274 276 264 257 258 264
21 10 8 11 8 358 338 330 327 319 317 314 307 306 302 301 297 297 305 301 297 298 298 299 300 301 286 282 280 272 271 259 262
344 341 340 344 340 339 330 327 323 321 320 316 313 305 300 295 292 291 291 289 292 283 279 282 280 281 284 285 281 272 270 285 277
38 10 354 343 336 334 330 325 325 319 316 308 309 308 303 287 287 284 282 283 284 282 284 289 291 285 281 278 278 278 279 274 275
12 8 350 345 334 327 331 335 331 329 325 319 303 304 302 296 290 284 281 279 278 282 282 282 285 292 295 286 275 276 281 276 277
Height
1520 1521 1527 1534 1537 1543 1549 1555 1562 1568 1572 1574 1577 1581 1584 1587 1591 1594 1596 1598 1600 1601 1600 1603 1603 1604 1606 1607 1609 1610 1610 1611 1613
1520 1514 1521 1526 1533 1539 1546 1551 1557 1564 1569 1572 1574 1577 1581 1584 1587 1590 1594 1596 1598 1600 1601 1599 1602 1604 1606 1607 1608 1609 1610 1610 1612
1526 1518 1519 1523 1526 1534 1542 1548 1553 1560 1565 1569 1571 1575 1578 1581 1584 1586 1590 1593 1595 1597 1599 1600 1596 1601 1604 1606 1607 1608 1608 1610 1610
1531 1525 1523 1518 1513 1528 1536 1542 1548 1554 1561 1565 1568 1572 1575 1578 1580 1583 1586 1588 1591 1593 1595 1597 1598 1600 1603 1603 1605 1607 1607 1607 1607
1534 1530 1530 1526 1526 1528 1534 1536 1542 1550 1556 1561 1564 1568 1571 1574 1577 1581 1583 1584 1587 1589 1591 1593 1595 1597 1598 1601 1602 1604 1605 1606 1607
1536 1533 1529 1530 1533 1533 1537 1537 1540 1543 1547 1552 1559 1564 1567 1569 1572 1575 1578 1581 1583 1585 1587 1589 1591 1594 1594 1597 1599 1601 1602 1603 1604
1541 1540 1540 1541 1537 1533 1540 1538 1540 1542 1545 1549 1552 1558 1562 1565 1567 1570 1573 1576 1579 1581 1582 1584 1586 1588 1591 1593 1595 1597 1599 1600 1599
1544 1545 1547 1546 1545 1543 1540 1538 1543 1546 1547 1547 1549 1552 1554 1561 1563 1566 1569 1571 1573 1576 1578 1579 1581 1583 1585 1588 1590 1592 1592 1595 1596
1546 1548 1549 1550 1551 1553 1552 1550 1549 1548 1547 1549 1550 1553 1552 1553 1558 1561 1565 1566 1568 1569 1572 1575 1577 1577 1579 1581 1583 1585 1587 1589 1591
1550 1552 1553 1553 1553 1554 1554 1555 1554 1551 1551 1551 1551 1552 1554 1554 1555 1556 1559 1561 1563 1565 1565 1568 1571 1572 1574 1574 1574 1577 1580 1582 1584
1552 1554 1556 1557 1558 1558 1558 1558 1556 1555 1555 1554 1553 1553 1553 1552 1552 1553 1554 1556 1557 1559 1561 1562 1564 1566 1567 1568 1569 1570 1572 1575 1576
1553 1555 1556 1558 1559 1559 1559 1558 1558 1557 1558 1556 1556 1553 1551 1550 1550 1551 1552 1552 1552 1553 1555 1556 1557 1559 1561 1562 1562 1564 1565 1568 1569
1552 1553 1555 1555 1556 1557 1557 1556 1556 1556 1556 1556 1555 1554 1553 1551 1549 1548 1548 1548 1548 1549 1549 1549 1550 1551 1553 1555 1555 1557 1558 1560 1561
1551 1552 1552 1552 1554 1554 1554 1554 1554 1554 1554 1554 1553 1552 1552 1550 1549 1547 1545 1545 1545 1544 1544 1543 1544 1544 1543 1545 1548 1549 1550 1551 1552
1550 1550 1551 1551 1552 1552 1552 1552 1552 1551 1551 1550 1548 1548 1548 1547 1546 1544 1544 1542 1542 1541 1541 1540 1539 1535 1535 1537 1540 1541 1543 1542 1543
1547 1549 1550 1550 1550 1550 1551 1550 1549 1548 1547 1546 1545 1543 1543 1543 1542 1542 1541 1539 1538 1538 1538 1534 1531 1530 1529 1530 1534 1534 1535 1537 1536
1546 1546 1547 1547 1547 1547 1547 1546 1546 1545 1544 1542 1540 1540 1539 1538 1538 1538 1537 1537 1536 1534 1533 1530 1528 1528 1527 1527 1527 1528 1529 1525 1523
1544 1544 1544 1543 1543 1543 1544 1543 1542 1541 1541 1539 1536 1534 1533 1534 1534 1534 1533 1532 1531 1530 1528 1527 1525 1524 1524 1523 1521 1521 1520 1519 1516
1544 1543 1543 1543 1542 1540 1539 1539 1538 1537 1536 1534 1532 1531 1529 1529 1528 1528 1528 1527 1525 1525 1522 1521 1520 1519 1518 1516 1514 1514 1513 1513 1512
1541 1542 1541 1540 1540 1538 1537 1536 1535 1532 1531 1530 1527 1525 1524 1524 1523 1523 1522 1521 1520 1517 1516 1515 1514 1512 1511 1509 1507 1507 1506 1505 1503